Location: Bretagne
(43.8474°N, 0.4650°W)
Time: 15:15:02
(UTC+00:00)

Meteor 2-8 Rocket - Pass Details

Date: 15 January 2026
Orbit: 937 x 957 km, 82.5° (Epoch: 17 February)

Event Time Altitude Azimuth Distance (km) Brightness Sun altitude
Rises 19:02:12 0° 350° (N) 3,638 7.5 -23.4°
Reaches altitude 10° 19:04:42 10° 350° (N) 2,691 6.8 -23.8°
Maximum altitude 19:10:52 83° 264° (W) 969 4.4 -24.9°
Drops below altitude 10° 19:17:01 10° 177° (S) 2,679 6.8 -26.0°
Sets 19:19:30 0° 176° (S) 3,621 7.5 -26.5°
